TimeCST,TemperatureF,Dew PointF,Humidity,Sea Level PressureIn,VisibilityMPH,Wind Direction,Wind SpeedMPH,Gust SpeedMPH,PrecipitationIn,Events,Conditions,WindDirDegrees,DateUTC
12:52 AM,37.4,26.6,65,30.29,10.0,South,10.4,-,N/A,,Clear,170,2012-11-29 06:52:00
1:52 AM,39.0,26.1,60,30.30,10.0,South,12.7,-,N/A,,Clear,180,2012-11-29 07:52:00
2:52 AM,37.9,26.1,62,30.30,10.0,South,11.5,-,N/A,,Clear,180,2012-11-29 08:52:00
3:52 AM,37.0,26.1,65,30.29,10.0,South,6.9,-,N/A,,Clear,170,2012-11-29 09:52:00
4:52 AM,36.0,26.1,67,30.27,10.0,South,10.4,-,N/A,,Clear,170,2012-11-29 10:52:00
5:52 AM,36.0,27.0,70,30.27,10.0,South,9.2,-,N/A,,Clear,170,2012-11-29 11:52:00
6:52 AM,34.0,27.0,75,30.27,10.0,South,9.2,-,N/A,,Clear,170,2012-11-29 12:52:00
7:52 AM,37.0,28.9,73,30.26,10.0,South,11.5,-,N/A,,Clear,170,2012-11-29 13:52:00
8:52 AM,42.1,30.9,65,30.26,10.0,South,8.1,-,N/A,,Clear,170,2012-11-29 14:52:00
9:52 AM,46.0,32.0,58,30.25,10.0,South,11.5,-,N/A,,Clear,170,2012-11-29 15:52:00
10:52 AM,50.0,34.0,54,30.22,10.0,South,12.7,-,N/A,,Clear,170,2012-11-29 16:52:00
11:52 AM,53.1,35.1,50,30.19,10.0,South,6.9,-,N/A,,Clear,170,2012-11-29 17:52:00
12:52 PM,57.0,35.1,44,30.16,10.0,SSE,10.4,-,N/A,,Clear,160,2012-11-29 18:52:00
1:52 PM,57.9,36.0,44,30.13,10.0,SSE,15.0,-,N/A,,Clear,150,2012-11-29 19:52:00
2:52 PM,55.9,35.1,45,30.10,10.0,SSE,17.3,-,N/A,,Clear,160,2012-11-29 20:52:00
3:52 PM,54.0,35.1,49,30.09,10.0,South,13.8,-,N/A,,Clear,170,2012-11-29 21:52:00
4:52 PM,53.1,35.1,50,30.07,10.0,South,13.8,-,N/A,,Clear,170,2012-11-29 22:52:00
5:52 PM,52.0,33.1,49,30.08,10.0,South,12.7,-,N/A,,Clear,170,2012-11-29 23:52:00
6:52 PM,52.0,30.0,43,30.07,10.0,South,17.3,24.2,N/A,,Clear,170,2012-11-30 00:52:00
7:52 PM,51.1,32.0,48,30.08,10.0,South,15.0,24.2,N/A,,Clear,180,2012-11-30 01:52:00
8:52 PM,50.0,32.0,50,30.08,10.0,South,10.4,-,N/A,,Clear,180,2012-11-30 02:52:00
9:52 PM,48.9,32.0,52,30.09,10.0,South,12.7,-,N/A,,Clear,170,2012-11-30 03:52:00
10:52 PM,48.0,32.0,54,30.09,10.0,South,11.5,-,N/A,,Clear,190,2012-11-30 04:52:00
11:52 PM,46.9,32.0,56,30.09,10.0,South,10.4,-,N/A,,Clear,190,2012-11-30 05:52:00